Weather History for College Park, MD

Change the Weather History Date:

Saturday, May 3, 2014

  Actual Average Record
Temperature  
Mean Temperature 62 °F -  
Max Temperature 73 °F 74 °F 92 °F (1965)
Min Temperature 51 °F 50 °F 33 °F (1963)
Degree Days  
Heating Degree Days 3    
Growing Degree Days 12 (Base 50)    
Moisture  
Dew Point 43 °F    
Average Humidity 54    
Maximum Humidity 88    
Minimum Humidity 27    
Precipitation  
Precipitation 0.00 in - - ()
Sea Level Pressure  
Sea Level Pressure 29.83 in    
Wind  
Wind Speed 1 mph (SSW)    
Max Wind Speed 9 mph    
Max Gust Speed 17 mph    
Visibility 10 miles    
Events      
Averages and records for this station are not official NWS values.
T = Trace of Precipitation, MM = Missing Value Source: NWS Daily Summary

Daily Weather History Graph

Daily Weather History Graph

Search for Another Location

Airport:

Trip Planner

Search our weather history database for the weather conditions in past years. The results will help you decide how hot, cold, wet, or windy it might be!

Date:

Astronomy

May. 03, 2014 Rise Set
Actual Time 6:07 AM EDT 8:02 PM EDT
Civil Twilight 5:38 AM EDT 8:31 PM EDT
Nautical Twilight 5:03 AM EDT 9:06 PM EDT
Astronomical Twilight 4:25 AM EDT 9:44 PM EDT
Moon 9:35 AM EDT (5/3) No Moon Set
Length of Visible Light 14h 53m
Length of Day
13h 54m
Waxing Crescent, 19% of the Moon is Illuminated
May 3
Waxing Crescent
May 6
First Quarter
May 14
Full
May 21
Last Quarter
May 28
New

Hourly Weather History & Observations

Time (EDT) Temp. Dew Point Humidity Pressure Visibility Wind Dir Wind Speed Gust Speed Precip Events Conditions
12:20 AM 59.0 °F 44.6 °F 59% 29.90 in 10.0 mi Calm Calm - N/A   Overcast
12:40 AM 57.2 °F 44.6 °F 63% 29.89 in 10.0 mi Calm Calm - N/A   Overcast
1:00 AM 57.2 °F 44.6 °F 63% 29.89 in 10.0 mi Calm Calm - N/A   Overcast
1:20 AM 55.4 °F 44.6 °F 67% 29.88 in 10.0 mi Calm Calm - N/A   Overcast
1:40 AM 55.4 °F 46.4 °F 72% 29.88 in 10.0 mi Calm Calm - N/A   Overcast
2:00 AM 55.4 °F 46.4 °F 72% 29.88 in 10.0 mi Calm Calm - N/A   Overcast
2:20 AM 55.4 °F 46.4 °F 72% 29.87 in 10.0 mi Calm Calm - N/A   Overcast
2:40 AM 55.4 °F 46.4 °F 72% 29.87 in 10.0 mi Calm Calm - N/A   Overcast
3:00 AM 55.4 °F 46.4 °F 72% 29.88 in 10.0 mi Calm Calm - N/A   Overcast
3:20 AM 53.6 °F 48.2 °F 82% 29.87 in 10.0 mi Calm Calm - N/A   Mostly Cloudy
3:40 AM 53.6 °F 46.4 °F 77% 29.87 in 10.0 mi Calm Calm - N/A   Scattered Clouds
4:00 AM 53.6 °F 46.4 °F 77% 29.88 in 10.0 mi Calm Calm - N/A   Clear
4:20 AM 53.6 °F 46.4 °F 77% 29.89 in 10.0 mi Calm Calm - N/A   Scattered Clouds
4:40 AM 51.8 °F 46.4 °F 82% 29.88 in 10.0 mi Calm Calm - N/A   Scattered Clouds
4:55 AM 51.8 °F 46.4 °F 82% 29.88 in 10.0 mi Calm Calm - N/A   Scattered Clouds
5:20 AM 51.8 °F 46.4 °F 82% 29.87 in 10.0 mi Calm Calm - N/A   Scattered Clouds
5:40 AM 51.8 °F 46.4 °F 82% 29.88 in 10.0 mi Calm Calm - N/A   Mostly Cloudy
6:00 AM 51.8 °F 46.4 °F 82% 29.88 in 10.0 mi Calm Calm - N/A   Overcast
6:20 AM 51.8 °F 48.2 °F 88% 29.88 in 10.0 mi Calm Calm - N/A   Overcast
6:40 AM 51.8 °F 48.2 °F 88% 29.89 in 10.0 mi Calm Calm - N/A   Overcast
7:00 AM 51.8 °F 48.2 °F 88% 29.89 in 10.0 mi Calm Calm - N/A   Overcast
7:20 AM 53.6 °F 50.0 °F 88% 29.89 in 10.0 mi Calm Calm - N/A   Overcast
7:40 AM 53.6 °F 50.0 °F 88% 29.89 in 10.0 mi Calm Calm - N/A   Overcast
8:00 AM 55.4 °F 51.8 °F 88% 29.89 in 10.0 mi Calm Calm - N/A   Overcast
8:20 AM 57.2 °F 48.2 °F 72% 29.89 in 10.0 mi Calm Calm - N/A   Overcast
8:40 AM 59.0 °F 46.4 °F 63% 29.89 in 10.0 mi Calm Calm - N/A   Overcast
9:00 AM 59.0 °F 48.2 °F 67% 29.89 in 10.0 mi Calm Calm - N/A   Mostly Cloudy
9:20 AM 62.6 °F 46.4 °F 55% 29.89 in 10.0 mi Calm Calm - N/A   Mostly Cloudy
9:35 AM 62.6 °F 44.6 °F 52% 29.88 in 10.0 mi SE 3.5 mph - N/A   Overcast
10:00 AM 64.4 °F 41.0 °F 42% 29.88 in 10.0 mi ESE 5.8 mph - N/A   Mostly Cloudy
10:20 AM 64.4 °F 39.2 °F 40% 29.87 in 10.0 mi SE 4.6 mph - N/A   Mostly Cloudy
10:40 AM 66.2 °F 39.2 °F 37% 29.87 in 10.0 mi ESE 4.6 mph - N/A   Scattered Clouds
11:00 AM 68.0 °F 39.2 °F 35% 29.86 in 10.0 mi Calm Calm - N/A   Scattered Clouds
11:20 AM 66.2 °F 37.4 °F 35% 29.86 in 10.0 mi Calm Calm - N/A   Mostly Cloudy
11:40 AM 68.0 °F 39.2 °F 35% 29.85 in 10.0 mi South 4.6 mph - N/A   Mostly Cloudy
11:55 AM 68.0 °F 39.2 °F 35% 29.85 in 10.0 mi Calm Calm - N/A   Mostly Cloudy
12:20 PM 68.0 °F 39.2 °F 35% 29.84 in 10.0 mi SE 6.9 mph - N/A   Mostly Cloudy
12:40 PM 69.8 °F 41.0 °F 35% 29.83 in 10.0 mi SSE 8.1 mph - N/A   Scattered Clouds
1:00 PM 69.8 °F 41.0 °F 35% 29.83 in 10.0 mi South 8.1 mph - N/A   Scattered Clouds
1:20 PM 69.8 °F 39.2 °F 33% 29.82 in 10.0 mi SSW 4.6 mph - N/A   Scattered Clouds
1:40 PM 69.8 °F 39.2 °F 33% 29.81 in 10.0 mi Calm Calm - N/A   Scattered Clouds
2:00 PM 71.6 °F 41.0 °F 33% 29.81 in 10.0 mi SSW 6.9 mph - N/A   Mostly Cloudy
2:20 PM 71.6 °F 41.0 °F 33% 29.80 in 10.0 mi South 6.9 mph - N/A   Mostly Cloudy
2:40 PM 71.6 °F 37.4 °F 29% 29.79 in 10.0 mi SSW 3.5 mph - N/A   Mostly Cloudy
3:00 PM 71.6 °F 39.2 °F 31% 29.78 in 10.0 mi SSW 5.8 mph - N/A   Mostly Cloudy
3:20 PM 71.6 °F 37.4 °F 29% 29.78 in 10.0 mi South 9.2 mph - N/A   Overcast
3:40 PM 71.6 °F 39.2 °F 31% 29.76 in 10.0 mi WSW 5.8 mph - N/A   Overcast
4:00 PM 71.6 °F 37.4 °F 29% 29.76 in 10.0 mi SW 4.6 mph - N/A   Mostly Cloudy
4:20 PM 71.6 °F 39.2 °F 31% 29.76 in 10.0 mi SSW 5.8 mph - N/A   Mostly Cloudy
4:40 PM 71.6 °F 39.2 °F 31% 29.76 in 10.0 mi WSW 6.9 mph - N/A   Overcast
5:00 PM 71.6 °F 39.2 °F 31% 29.74 in 10.0 mi SW 6.9 mph - N/A   Scattered Clouds
5:20 PM 73.4 °F 39.2 °F 29% 29.74 in 10.0 mi SW 6.9 mph - N/A   Scattered Clouds
5:40 PM 73.4 °F 37.4 °F 27% 29.73 in 10.0 mi SSW 3.5 mph - N/A   Scattered Clouds
6:00 PM 73.4 °F 37.4 °F 27% 29.73 in 10.0 mi SW 4.6 mph - N/A   Scattered Clouds
6:20 PM 71.6 °F 35.6 °F 27% 29.73 in 10.0 mi SW 6.9 mph 17.3 mph N/A   Scattered Clouds
6:40 PM 71.6 °F 35.6 °F 27% 29.74 in 10.0 mi SW 5.8 mph - N/A   Overcast
7:00 PM 71.6 °F 35.6 °F 27% 29.75 in 10.0 mi WSW 6.9 mph - N/A   Overcast
7:15 PM 71.6 °F 37.4 °F 29% 29.76 in 10.0 mi WNW 6.9 mph - N/A   Mostly Cloudy
7:40 PM 68.0 °F 41.0 °F 37% 29.76 in 10.0 mi NNW 3.5 mph - N/A   Scattered Clouds
8:00 PM 64.4 °F 44.6 °F 49% 29.77 in 10.0 mi Calm Calm - N/A   Scattered Clouds
8:20 PM 62.6 °F 46.4 °F 55% 29.77 in 10.0 mi Calm Calm - N/A   Mostly Cloudy
9:00 PM 60.8 °F 48.2 °F 63% 29.78 in 10.0 mi Calm Calm - N/A   Mostly Cloudy
9:20 PM 60.8 °F 46.4 °F 59% 29.78 in 10.0 mi Calm Calm - N/A   Mostly Cloudy
10:00 PM 60.8 °F 48.2 °F 63% 29.81 in 10.0 mi North 4.6 mph - N/A   Overcast
10:20 PM 60.8 °F 46.4 °F 59% 29.82 in 10.0 mi Calm Calm - N/A   Mostly Cloudy
10:40 PM 60.8 °F 46.4 °F 59% 29.82 in 10.0 mi Calm Calm - N/A   Mostly Cloudy
11:00 PM 60.8 °F 46.4 °F 59% 29.82 in 10.0 mi Calm Calm - N/A   Mostly Cloudy
11:20 PM 59.0 °F 46.4 °F 63% 29.83 in 10.0 mi Calm Calm - N/A   Scattered Clouds
11:40 PM 57.2 °F 48.2 °F 72% 29.83 in 10.0 mi Calm Calm - N/A   Scattered Clouds